Regional Weather Roundup
Issued by NWS Newport/Morehead, NC

Current Version | Previous Version | Graphics & Text | Print | Product List | Glossary Off
Versions: 1 2 3 4 5 6 7 8 9 10 11 12 13 14 15 16 17 18 19 20 21 22 23 24 25 26 27 28 29 30 31 32 33 34 35 36 37 38 39 40 41 42 43 44 45 46 47 48 49 50

000
ASUS42 KMHX 280025
RWRMHX
WEATHER ROUNDUP FOR EASTERN NORTH CAROLINA
NATIONAL WEATHER SERVICE NEWPORT/MOREHEAD CITY NC
700 PM EST MON FEB 27 2017

NOTE: "FAIR" INDICATES FEW OR NO CLOUDS BELOW 12,000 FEET
WITH NO SIGNIFICANT WEATHER AND/OR OBSTRUCTIONS TO VISIBILITY

NCZ015>017-031-032-045>047-102-103-280100-
NORTH COAST

CITY           SKY/WX    TMP DP  RH WIND       PRES   REMARKS
EDENTON        PTCLDY    62  49  62 SE6       30.39F
ELIZABETH CITY CLEAR     58  47  66 SE8       30.40S
KITTY HAWK     NOT AVBL
MANTEO         MOCLDY    54  45  72 E5        30.42S

$$

NCZ045>047-081-094-103-104-280100-
CENTRAL COAST

CITY           SKY/WX    TMP DP  RH WIND       PRES   REMARKS
FRISCO         CLOUDY    66  53  63 SE12      30.40S

$$

NCZ095-097-098-100-101-280100-
SOUTHERN COAST

CITY           SKY/WX    TMP DP  RH WIND       PRES   REMARKS
BEAUFORT       CLOUDY    59  50  72 NE6       30.39S
CEDAR ISLAND   NOT AVBL
JACKSONVILLE   PTCLDY    60  52  74 CALM      30.38S
PINEY ISLAND   CLOUDY   N/A N/A N/A NE8       30.39F
WILMINGTON     PTCLDY    61  51  70 SE5       30.38S


$$

NCZ011>013-027>030-043-044-078>080-089-090>093-098-280100-
COASTAL PLAIN

CITY           SKY/WX    TMP DP  RH WIND       PRES   REMARKS
AHOSKIE          N/A     57  38  48 SE3       30.37R
CLINTON        CLOUDY    63  49  62 SE5       30.32F
ELIZABETHTOWN  CLOUDY    63  49  59 SE12      30.32F
GOLDSBORO      PTCLDY    62  48  60 SE6       30.32F
GREENVILLE     CLOUDY    63  46  55 SE6       30.36F
HAVELOCK       MOCLDY    66  49  54 E3        30.40S
KENANSVILLE    PTCLDY    63  50  63 SE5       30.34F
KINSTON        CLOUDY    63  48  59 SE6       30.36F
NEW BERN       CLOUDY    58  48  69 SE5       30.40
RICHLANDS      PTCLDY    59  50  72 SE6       30.38S
ROCKY MOUNT    PTCLDY    59  38  45 E3        30.34F
WASHINGTON     CLOUDY    57  46  64 SE6       30.39R
WHITEVILLE     MOCLDY    63  49  60 SE3       30.34F

$$

AMZ130-135-150-152-154-156-158-170-250-252-270-ANZ085-086-088-633-658-670-280100-
MARINE OBSERVATIONS

STATION/POSITION TIME  TEMP    WIND        PRES    WAVE   SWELL
                       AIR SEA DIR/SP/G            HT/PER HT/PER
                 (UTC) (F)     (DEG/KT/KT) (MB)    (FT/S) (FT/S)
CHESAPEAKE LIGHT NOT AVBL
64 E VA BEACH    2350   52 49   60/  6/  6 1030.2    3/ 8   2/ 8
DUCK             0000   51 49  120/  5/  6 1029.4
2 E DUCK         0000      50                N/A     2/ 8
OREGON INLET     0000   55 56   70/  5/  6 1029.6
13E OREGON INLT  NOT AVBL
HATTERAS CG      0000   65 62  190/  4/  9 1029.0
DIAMOND BUOY     2350   67 72  160/ 16/ 17 1029.1    4/ 8   2/ 8
CAPE LOOKOUT     0000   60      50/  8/  9 1028.7
BEAUFORT LAB     0000   59 61   40/  4/  7 1028.1
30 SE NEW RVR IN 0008   66     190/  6/ 10 1028.8
30 SE NEW RVR IN 2343      66                N/A     3/ 8
27 SE WRIGHTSVLE 0008   63 64  350/  4/  8 1028.2
5 SE WRIGHTSVLE  0008   59 58   70/  4/  8 1028.6
225 S CAPE HAT   2350   69 70  120/ 12/ 14 1028.6    4/ 8   3/ 8
41 SE CHARLESTON 2350   69 69   90/  8/ 10 1026.4    4/ 9   3/ 9

$$




USA.gov is the U.S. government's official web portal to all federal, state and local government web resources and services.